Location: *
(49.9317°N, 6.4986°E)
Time: 20:31:48
(UTC+00:00)

Daily predictions for brighter satellites

Satellite Brightness Start Highest point End
(mag) Time Altitude Azimuth Time Altitude Azimuth Time Altitude Azimuth
CZ-4C R/B 3.0 17:02:58 10° NW 17:10:02 88° NE 17:18:11 10° SE
GP-B 3.7 17:10:14 10° N 17:14:39 63° W 17:19:01 10° SSW
Cosmos 1607 4.2 17:09:58 10° SW 17:16:08 76° NW 17:22:19 10° NE
ATLAS 5 CENTAUR R/B 2.2 17:15:15 10° S 17:19:12 38° ESE 17:23:37 10° NE
YAOGAN 1 3.0 17:17:52 10° SE 17:21:56 42° ENE 17:26:02 10° N
H-2A R/B 3.9 17:20:14 10° ENE 17:22:16 12° NE 17:24:19 10° NNE
Unknown 4.5 17:18:37 10° SSW 17:22:22 34° SE 17:26:08 10° ENE
Unknown 3.5 17:23:32 10° WNW 17:26:33 45° N 17:29:30 11° ENE
SL-4 R/B 2.1 17:23:31 10° WNW 17:27:27 66° SSW 17:31:05 10° ESE
Gbstr 26 Del rocket 4.1 17:22:04 10° W 17:27:48 75° N 17:34:51 10° E
Unknown 4.2 17:25:03 10° SW 17:28:53 40° SE 17:32:40 10° ENE
Unknown 4.4 17:25:07 10° SSW 17:28:57 37° SE 17:32:43 10° ENE
Unknown 4.3 17:26:44 10° SSW 17:30:35 38° SE 17:34:17 11° ENE
Unknown 4.3 17:28:24 10° SSW 17:32:16 39° SE 17:35:55 11° ENE
Cosmos 2263 Rocket 3.1 17:26:50 10° SW 17:32:22 53° NW 17:37:55 10° NNE
EO 1 Delta rocket 4.3 17:29:20 10° SE 17:33:36 38° ENE 17:38:02 10° N
Unknown 4.2 17:30:02 10° SW 17:33:54 40° SE 17:37:30 12° ENE
Okean-O 3.5 17:29:33 10° S 17:33:54 56° W 17:38:17 10° NNW
CSL-04 Rocket 3.8 17:28:42 10° SSE 17:34:10 62° ENE 17:39:37 10° N
NOSS 2-1 (E) 4.5 17:29:33 10° NW 17:34:53 85° NE 17:42:21 10° SE
Unknown 4.2 17:31:38 10° SW 17:35:32 41° SE 17:39:04 12° ENE
CZ-2D R/B 4.0 17:32:31 10° SE 17:35:55 31° ENE 17:39:23 10° N
Cosmos 2239 Rocket 4.4 17:30:18 10° N 17:36:29 68° ENE 17:42:34 10° SSE
Cosmos 1271 Rocket 2.8 17:33:01 10° N 17:36:57 62° ENE 17:40:53 10° SSE
Cosmos 1726 Rocket 3.9 17:32:49 10° SSE 17:36:58 42° E 17:41:07 10° NNE
Unknown 4.1 17:34:58 10° SW 17:38:54 43° SE 17:42:20 13° ENE
Cosmos 724 4.4 17:34:22 10° SSW 17:40:28 68° ESE 17:46:28 10° NE
BREEZE M DEB (TANK) 1.9 17:38:22 10° W 17:40:29 62° S 17:44:18 11° ESE
Starlink (trailer) 4.1 17:36:35 10° SW 17:40:32 44° SE 17:43:54 14° ENE
Cosmos 1605 Rocket 4.4 17:36:16 10° N 17:42:04 38° ENE 17:47:46 10° SE
Unknown 4.1 17:38:15 10° SW 17:42:13 45° SE 17:45:31 14° ENE
Cosmos 1821 Rocket 3.9 17:36:08 10° N 17:42:17 81° E 17:48:25 10° SSE
Unknown 3.7 17:39:31 10° SW 17:43:29 58° SSE 17:46:49 14° ENE
Unknown 4.0 17:39:52 10° SW 17:43:50 46° SE 17:47:05 15° ENE
Lacrosse 5 2.7 17:39:09 10° WNW 17:43:53 38° N 17:47:59 13° ENE
Cosmos 1953 2.3 17:40:09 10° S 17:44:10 70° E 17:48:15 10° NNE
Cosmos 2058 Rocket 3.7 17:40:17 10° SSE 17:44:12 33° E 17:48:07 10° NNE
Shenzhou-11 Module 4.3 17:44:19 10° S 17:45:19 11° SSE 17:46:18 10° SE
Cosmos 1833 Rocket 3.7 17:41:02 10° NNW 17:45:53 29° NE 17:49:44 14° E
Cosmos 1758 3.9 17:45:09 10° SSW 17:49:06 62° WNW 17:53:03 10° N
Cosmos 1703 3.8 17:45:34 10° N 17:49:15 36° ENE 17:52:54 10° SE
Unknown 3.9 17:46:26 10° SW 17:50:27 51° SSE 17:53:28 17° ENE
Unknown 3.9 17:46:30 10° SW 17:50:31 51° SSE 17:53:32 17° ENE
COBE Rocket 4.1 17:45:49 10° NNE 17:51:03 88° WNW 17:56:12 10° SSW
Nadezhda 3 Rocket 4.0 17:44:47 10° S 17:51:04 82° E 17:57:26 10° N
Unknown 3.9 17:47:17 10° SW 17:51:18 51° SSE 17:54:17 17° ENE
Cosmos 1626 3.8 17:50:18 10° NNW 17:53:46 37° W 17:57:13 10° SSW
Cosmos 2228 3.0 17:49:44 10° S 17:54:04 66° E 17:58:25 10° NNE
Unknown 3.8 17:51:23 10° SW 17:55:26 54° SSE 17:58:15 19° ENE
Unknown 3.8 17:51:24 10° SW 17:55:26 54° SSE 17:58:16 19° ENE
COSMOS 2406 3.3 17:51:04 10° NNW 17:56:48 57° NE 18:02:27 10° SE
Cosmos 1535 Rocket 4.4 17:50:35 10° N 17:56:50 70° ENE 18:02:59 10° SSE
Unknown 3.8 17:53:07 10° SW 17:57:11 57° SSE 17:59:59 19° ENE
Cosmos 1934 Rocket 4.0 17:52:37 10° N 17:58:56 72° ENE 18:05:17 10° SSE
Envisat 3.8 17:55:07 10° S 18:00:06 55° W 18:05:07 10° NNW
Unknown 3.7 17:56:24 10° SW 18:00:29 60° SSE 18:03:09 20° ENE
Unknown 3.7 17:57:03 10° SW 18:01:07 59° SSE 18:03:45 21° ENE
Cosmos 2082 Rocket 3.3 17:56:19 10° NNW 18:01:12 28° NE 18:04:05 19° E
COSMO-SKYMED 1 2.6 17:57:12 10° NNE 18:01:34 83° WNW 18:05:55 10° SSW
Unknown 3.7 17:58:00 10° SW 18:02:05 59° SSE 18:04:41 21° ENE
Cosmos 1726 2.4 18:00:23 10° SSE 18:03:51 42° E 18:07:21 10° NNE
Meteor 1-11 4.4 17:58:30 10° N 18:04:10 55° ENE 18:09:49 10° SSE
Cosmos 304 Rocket 4.3 17:59:38 10° SW 18:04:25 63° WNW 18:09:13 10° NNE
Unknown 3.7 18:01:12 10° SW 18:05:17 60° SSE 18:07:45 23° ENE
Cosmos 1939 Rocket 2.9 18:02:06 10° SSE 18:05:59 58° ENE 18:09:57 10° N
Cosmos 921 Rocket 3.2 18:02:01 10° S 18:06:23 51° ESE 18:10:44 10° NNE
ATLAS CENTAUR R/B 4.0 18:03:50 10° NW 18:06:25 14° N 18:08:56 10° NNE
Cosmos 292 Rocket 4.3 18:02:38 10° SSE 18:06:52 33° ESE 18:11:07 10° NE
Unknown 3.6 18:04:35 10° SW 18:08:41 65° SSE 18:11:03 24° ENE
Unknown 3.6 18:06:14 10° SW 18:10:21 66° SSE 18:12:38 25° ENE
Unknown 3.6 18:07:56 10° SW 18:12:03 67° SSE 18:14:16 26° ENE
Unknown 3.6 18:09:34 10° SW 18:13:42 69° SSE 18:15:52 27° ENE
Cosmos 1356 3.6 18:10:47 10° S 18:14:06 47° E 18:17:26 10° NNE
Lacrosse 5 rocket 2.0 18:11:01 10° WNW 18:14:39 48° SW 18:17:43 15° SSE
Cosmos 1953 Rocket 4.1 18:11:06 10° NNW 18:15:26 60° W 18:19:44 10° S
Unknown 3.6 18:12:51 10° WSW 18:16:59 72° SSE 18:19:01 29° ENE
USA 116 3.1 18:14:29 10° NNE 18:17:36 82° WNW 18:20:47 10° SSW
Unknown 3.5 18:14:35 10° WSW 18:18:43 74° SSE 18:20:42 30° ENE
Unknown 3.5 18:16:12 10° WSW 18:20:19 74° SSE 18:22:15 31° ENE
Cosmos 2084 3.5 18:16:39 10° SSW 18:21:09 68° SE 18:24:06 21° NE
Unknown 3.5 18:17:48 10° WSW 18:21:56 75° SSE 18:23:47 32° ENE
Unknown 3.5 18:18:27 10° WSW 18:22:35 76° SSE 18:24:25 32° ENE
CZ-4 R/B 3.0 18:19:11 10° SSW 18:23:04 38° W 18:27:02 10° NNW
Unknown 3.5 18:21:00 10° WSW 18:25:07 75° SSE 18:26:49 34° ENE
FALCON 9 DEB 3.7 18:21:57 10° WNW 18:25:21 49° N 18:26:23 35° NE
Unknown 3.7 18:22:29 10° WNW 18:25:55 49° N 18:27:00 35° NE
Cosmos 1242 Rocket 2.9 18:23:13 10° NNW 18:26:54 68° W 18:30:33 10° S
Meteor 1-16 Rocket 4.1 18:22:05 10° S 18:27:41 89° W 18:33:10 10° NNE
Unknown 3.5 18:24:20 10° WSW 18:28:28 78° SSE 18:30:02 37° ENE
Cosmos 1328 3.9 18:24:50 10° NNW 18:28:51 74° W 18:32:48 10° S
Unknown 3.5 18:25:58 10° WSW 18:30:06 79° SSE 18:31:36 38° ENE
ADEOS Rocket 4.1 18:23:27 10° NNE 18:30:22 34° E 18:36:57 10° SSE
Unknown 3.6 18:26:59 10° W 18:30:52 67° NNW 18:32:18 36° ENE
Cosmos 1844 Rocket 2.9 18:25:34 10° SW 18:31:14 74° WNW 18:36:54 10° NNE
Unknown 2.6 18:28:45 10° WNW 18:31:23 68° SSW 18:31:23 68° SSW
Unknown 3.5 18:27:51 10° WSW 18:32:00 84° SSE 18:33:29 39° ENE
Cosmos 1153 Rocket 4.5 18:26:35 10° N 18:32:40 57° ENE 18:38:15 12° SSE
Unknown 3.5 18:29:16 10° WSW 18:33:25 82° SSE 18:34:47 41° ENE
Cosmos 1908 3.1 18:30:16 10° S 18:34:09 66° E 18:38:02 10° NNE
Unknown 3.5 18:30:58 10° WSW 18:35:07 84° SSE 18:36:25 43° ENE
Unknown 3.7 18:31:46 10° W 18:35:34 60° N 18:36:44 39° NE
Unknown 3.8 18:33:55 10° W 18:37:36 54° N 18:38:33 40° NE
Unknown 3.5 18:34:14 10° WSW 18:38:23 86° SSE 18:39:34 46° ENE
ASTEX 1 4.5 18:33:55 10° N 18:38:38 46° WNW 18:43:21 10° SSW
Unknown 3.5 18:35:58 10° WSW 18:40:07 87° SSE 18:41:14 48° ENE
Unknown 3.5 18:37:46 10° WNW 18:41:07 51° N 18:41:24 49° NNE
SPOT 3 Rocket 3.8 18:39:51 35° ESE 18:41:34 49° ENE 18:46:34 10° N
Unknown 3.5 18:37:36 10° WSW 18:41:46 88° SE 18:42:49 50° ENE
Meteor 2-10 3.9 18:37:00 10° SSW 18:42:08 86° WNW 18:47:12 10° NNE
Ariane Rocket 3.2 18:37:29 10° S 18:42:35 74° WSW 18:47:42 10° NNW
Unknown 3.5 18:39:18 10° WSW 18:43:27 90° SSW 18:44:26 52° ENE
Cosmos 2278 Rocket 2.5 18:39:25 10° S 18:44:42 42° ESE 18:46:34 32° ENE
Cosmos 489 Rocket 4.3 18:40:29 10° SSW 18:46:40 74° ESE 18:52:53 10° NNE
Unknown 3.5 18:42:36 10° WSW 18:46:46 87° NNW 18:47:37 55° ENE
SWAS 4.5 18:42:46 10° SSW 18:47:03 81° WNW 18:50:17 17° NNE
Cosmos 1844 4.0 18:41:52 10° SW 18:47:34 71° WNW 18:53:23 10° NNE
Unknown 3.5 18:44:22 10° WSW 18:48:31 85° NNW 18:49:19 57° ENE
Falcon 9 debris 3.5 18:45:17 10° WNW 18:48:41 53° N 18:48:42 53° N
Unknown 3.6 18:44:34 10° WSW 18:48:43 81° NNW 18:49:33 56° ENE
Cosmos 2058 4.0 18:45:27 10° N 18:48:12 30° NE 18:48:12 30° NE
Unknown 3.6 18:46:26 10° WNW 18:49:54 52° N 18:49:56 52° N
Unknown 3.6 18:46:10 10° WSW 18:50:20 81° NNW 18:51:05 58° NE
Unknown 3.6 18:49:12 10° WSW 18:53:21 83° NNW 18:53:57 64° NE
USA 234 4.1 18:57:29 29° SE 18:57:29 29° SE 19:02:15 10° S
Unknown 3.5 18:52:32 10° WSW 18:56:42 80° NNW 18:57:09 68° NE
Unknown 3.5 18:54:16 10° WSW 18:58:25 79° NNW 18:58:49 70° NE
Unknown 3.5 18:55:53 10° WSW 19:00:02 78° NNW 19:00:21 72° NNE
H-2A R/B 2.1 18:59:39 51° ESE 19:00:35 59° ENE 19:05:54 10° N
Cosmos 1777 Rocket 4.2 18:55:26 10° NNW 19:00:39 70° WSW 19:03:37 26° S
Unknown 3.6 18:57:35 10° WSW 19:01:45 77° NNW 19:02:00 73° NNE
SJ-11-01 4.2 18:59:52 34° SSE 19:01:54 87° WSW 19:06:38 10° NNW
Unknown 4.0 18:59:21 10° WNW 19:01:36 44° WNW 19:01:36 44° WNW
ATLAS 5 CENTAUR R/B 2.8 18:59:36 10° WSW 19:03:49 41° NW 19:07:08 18° NNE
USA 186 4.5 19:06:43 11° NNW 19:06:43 11° NNW 19:06:48 10° NNW
SL-4 R/B 4.0 19:04:02 10° W 19:06:27 17° SW 19:07:19 15° SSW
Unknown 3.7 19:04:05 10° W 19:08:09 70° NNW 19:08:09 70° NNW
Unknown 3.7 19:04:14 10° WSW 19:08:23 73° NNW 19:08:23 73° NNW
Unknown 3.7 19:05:53 10° WSW 19:09:57 72° NNW 19:09:57 72° NNW
CZ-2C R/B 3.5 19:10:54 50° ENE 19:11:04 50° ENE 19:16:40 10° N
Unknown 3.7 19:07:35 10° WSW 19:11:35 71° NW 19:11:35 71° NW
Unknown 3.8 19:09:14 10° W 19:13:09 69° NW 19:13:09 69° NW
Unknown 3.9 19:10:52 10° W 19:14:43 67° NW 19:14:43 67° NW
Cosmos 1076 Rocket 3.5 19:10:46 10° N 19:14:49 76° N 19:14:49 76° N
Gbstr 26 Del rocket 4.1 19:09:01 10° WNW 19:15:23 86° SSW 19:17:24 52° ESE
Cosmos 2084 Rocket 4.4 19:11:50 10° NW 19:15:23 39° N 19:15:23 39° N
Cosmos 1461 3.3 19:12:39 10° NW 19:15:58 57° NNW 19:15:58 57° NNW
Unknown 4.0 19:14:16 10° W 19:18:00 62° NW 19:18:00 62° NW
NOSS 3-3 (A) 4.4 19:11:44 10° NW 19:19:04 74° NE 19:21:23 49° ESE
NOSS 3-3 (C) 4.4 19:11:50 10° NW 19:19:10 73° NE 19:21:28 49° ESE
Starlink (trailer) 4.0 19:15:55 10° W 19:19:33 60° WNW 19:19:33 60° WNW
Unknown 4.1 19:17:36 10° W 19:21:10 58° WNW 19:21:10 58° WNW
Unknown 4.3 19:18:43 10° W 19:22:07 52° NW 19:22:07 52° NW
Unknown 4.2 19:19:14 10° W 19:22:44 56° WNW 19:22:44 56° WNW
SJ-6B 3.7 19:25:00 44° NW 19:25:00 44° NW 19:27:47 10° NNW
Lacrosse 5 1.9 19:22:22 10° NW 19:27:11 73° N 19:27:11 73° N
BREEZE-M DEB (TANK) 3.8 19:22:04 10° SW 19:27:39 37° SSW 19:27:39 37° SSW
Unknown 4.5 19:25:54 10° W 19:29:07 48° WNW 19:29:07 48° WNW
Unknown 4.5 19:25:59 10° W 19:29:11 48° WNW 19:29:11 48° WNW
Cosmos 1833 Rocket 2.9 19:24:42 10° NNW 19:30:17 65° WSW 19:31:28 52° SSW
Cosmos 1459 Rocket 3.8 19:24:42 10° N 19:30:55 87° E 19:32:12 59° SSE
Resurs 01 Rocket 3.1 19:35:40 28° N 19:35:40 28° N 19:37:54 10° N
ARGOS 3.1 19:34:28 76° SSW 19:34:51 83° WSW 19:40:20 10° NNW
Cosmos 1727 Rocket 4.2 19:29:18 10° SSW 19:35:27 66° WNW 19:41:37 10° N
Cosmos 1802 Rocket 3.9 19:31:45 10° N 19:38:15 83° E 19:38:56 72° SSE
Cosmos 1898 Rocket 4.2 19:36:17 10° NNW 19:40:09 45° N 19:40:09 45° N
Cosmos 2082 Rocket 2.3 19:40:08 10° NNW 19:45:50 71° WSW 19:45:57 70° WSW
ATLAS CENTAUR R/B 4.0 19:44:25 10° NNW 19:46:39 15° N 19:46:39 15° N
Cosmos 2173 Rocket 4.1 19:44:09 10° NNW 19:50:26 70° W 19:51:41 55° SSW
SJ 16-02 3.5 19:53:12 10° NNW 19:54:38 20° N 19:54:38 20° N
Cosmos 1725 Rocket 4.2 19:59:39 10° N 20:04:50 63° N 20:04:50 63° N
ADEOS Rocket 3.8 20:08:35 10° N 20:16:18 66° WNW 20:23:39 10° SSW
Cosmos 2278 Rocket 3.3 20:23:29 10° WSW 20:35:55 - NNE 20:28:36 41° WNW
H-2A R/B 4.0 20:40:17 24° W 20:40:24 24° W 20:44:42 10° NW
ATLAS 5 CENTAUR R/B 4.3 20:46:17 10° NW 20:48:40 18° NNW 20:48:40 18° NNW
